📊 Raw Sensor Data
Showing records 38051 to 38075 of 84,923 total
| ID | Distance (ft) | Battery V | Battery A | Int Temp (°F) | Int Humid (%) | Ext Temp (°F) | Solar V | RSSI | SNR | Time Stamp |
|---|---|---|---|---|---|---|---|---|---|---|
| 46885 | 14.8 | 3.73 | -5 | 58 | 45 | 59 | 0.00 | -69 | 8 | 07/20/2025 11:45 PM |
| 46884 | 14.8 | 3.73 | -5 | 58 | 45 | 59 | 0.00 | -69 | 8 | 07/20/2025 11:30 PM |
| 46883 | 14.8 | 3.89 | -5 | 58 | 46 | 59 | 0.00 | -69 | 8 | 07/20/2025 11:15 PM |
| 46882 | 14.8 | 3.89 | -5 | 58 | 46 | 59 | 0.00 | -70 | 8 | 07/20/2025 11:00 PM |
| 46881 | 14.8 | 3.75 | -5 | 59 | 46 | 59 | 0.00 | -70 | 8 | 07/20/2025 10:45 PM |
| 46880 | 14.8 | 3.89 | -5 | 59 | 47 | 60 | 0.00 | -69 | 8 | 07/20/2025 10:30 PM |
| 46879 | 14.8 | 3.76 | -5 | 59 | 47 | 60 | 0.00 | -69 | 8 | 07/20/2025 10:15 PM |
| 46878 | 14.8 | 3.76 | -5 | 60 | 48 | 60 | 0.00 | -69 | 8 | 07/20/2025 10:00 PM |
| 46877 | 14.8 | 3.76 | -5 | 61 | 50 | 61 | 0.00 | -70 | 8 | 07/20/2025 09:30 PM |
| 46876 | 14.8 | 3.76 | -5 | 62 | 51 | 61 | 0.00 | -71 | 8 | 07/20/2025 09:15 PM |
| 46875 | 14.8 | 3.77 | -5 | 63 | 52 | 62 | 0.00 | -68 | 8 | 07/20/2025 09:00 PM |
| 46874 | 14.7 | 3.75 | -5 | 65 | 54 | 63 | 0.30 | -69 | 7 | 07/20/2025 08:45 PM |
| 46873 | 14.8 | 3.73 | -9 | 67 | 55 | 64 | 2.70 | -70 | 8 | 07/20/2025 08:30 PM |
| 46872 | 14.8 | 3.74 | 0 | 71 | 54 | 67 | 4.50 | -69 | 8 | 07/20/2025 08:15 PM |
| 46871 | 14.8 | 3.93 | 0 | 75 | 54 | 70 | 4.50 | -70 | 8 | 07/20/2025 08:00 PM |
| 46870 | 14.8 | 3.95 | 5 | 78 | 54 | 72 | 4.50 | -68 | 7 | 07/20/2025 07:45 PM |
| 46869 | 14.9 | 3.97 | 8 | 82 | 53 | 74 | 4.50 | -70 | 8 | 07/20/2025 07:30 PM |
| 46868 | 14.9 | 3.97 | -10 | 85 | 52 | 76 | 4.50 | -71 | 8 | 07/20/2025 07:15 PM |
| 46867 | 14.9 | 3.88 | 0 | 86 | 52 | 80 | 5.10 | -69 | 8 | 07/20/2025 07:00 PM |
| 46866 | 14.9 | 3.88 | 0 | 88 | 52 | 79 | 5.10 | -69 | 8 | 07/20/2025 06:45 PM |
| 46865 | 14.9 | 3.88 | 0 | 90 | 51 | 82 | 5.10 | -72 | 8 | 07/20/2025 06:30 PM |
| 46864 | 14.9 | 3.88 | 0 | 92 | 51 | 84 | 5.10 | -70 | 7 | 07/20/2025 06:15 PM |
| 46863 | 14.9 | 4.06 | 0 | 92 | 51 | 83 | 5.10 | -69 | 8 | 07/20/2025 06:00 PM |
| 46862 | 14.9 | 4.06 | 0 | 94 | 50 | 86 | 5.10 | -71 | 7 | 07/20/2025 05:45 PM |
| 46861 | 15.0 | 3.88 | 0 | 96 | 49 | 86 | 5.10 | -69 | 7 | 07/20/2025 05:30 PM |